TimeEST,TemperatureF,Dew PointF,Humidity,Sea Level PressureIn,VisibilityMPH,Wind Direction,Wind SpeedMPH,Gust SpeedMPH,PrecipitationIn,Events,Conditions,WindDirDegrees,DateUTC
12:54 AM,45.0,28.0,52,29.71,-9999.0,NNW,9.2,24.2,N/A,,Unknown,340,2012-11-24 05:54:00
1:54 AM,43.0,25.0,49,29.72,-9999.0,NW,8.1,-,N/A,,Unknown,310,2012-11-24 06:54:00
2:54 AM,41.0,25.0,53,29.72,-9999.0,Variable,3.5,-,N/A,,Unknown,0,2012-11-24 07:54:00
3:54 AM,41.0,21.9,47,29.73,-9999.0,WNW,9.2,-,N/A,,Unknown,300,2012-11-24 08:54:00
4:54 AM,39.0,19.9,46,29.75,-9999.0,Variable,4.6,-,N/A,,Unknown,0,2012-11-24 09:54:00
5:54 AM,37.9,19.9,48,29.76,-9999.0,Variable,5.8,-,N/A,,Unknown,0,2012-11-24 10:54:00
6:54 AM,37.0,19.9,50,29.78,-9999.0,Variable,5.8,-,N/A,,Unknown,0,2012-11-24 11:54:00
7:54 AM,37.9,19.9,48,29.79,-9999.0,North,9.2,-,N/A,,Unknown,350,2012-11-24 12:54:00
8:54 AM,39.0,19.9,46,29.78,-9999.0,NW,8.1,16.1,N/A,,Unknown,310,2012-11-24 13:54:00
9:54 AM,39.0,19.9,46,29.79,-9999.0,North,11.5,18.4,N/A,,Unknown,350,2012-11-24 14:54:00
10:54 AM,39.0,19.9,46,29.78,-9999.0,Variable,6.9,-,N/A,,Unknown,0,2012-11-24 15:54:00
11:54 AM,39.0,19.9,46,29.76,-9999.0,NNW,8.1,-,N/A,,Unknown,340,2012-11-24 16:54:00
12:54 PM,39.0,21.0,49,29.76,-9999.0,North,11.5,17.3,N/A,,Unknown,350,2012-11-24 17:54:00
1:54 PM,37.9,19.9,48,29.76,-9999.0,West,9.2,20.7,N/A,,Unknown,280,2012-11-24 18:54:00
2:54 PM,39.0,18.0,43,29.76,-9999.0,NW,8.1,23.0,N/A,,Unknown,310,2012-11-24 19:54:00
3:54 PM,39.0,16.0,39,29.77,-9999.0,North,9.2,23.0,N/A,,Unknown,350,2012-11-24 20:54:00
4:54 PM,37.9,16.0,41,29.79,-9999.0,Calm,Calm,-,N/A,,Unknown,0,2012-11-24 21:54:00
5:54 PM,36.0,14.0,41,29.83,-9999.0,Variable,4.6,-,N/A,,Unknown,0,2012-11-24 22:54:00
6:54 PM,35.1,14.0,42,29.83,-9999.0,Variable,4.6,-,N/A,,Unknown,0,2012-11-24 23:54:00
7:54 PM,35.1,16.0,46,29.84,-9999.0,Variable,5.8,-,N/A,,Unknown,0,2012-11-25 00:54:00
8:54 PM,34.0,17.1,50,29.85,-9999.0,NNW,8.1,-,N/A,,Unknown,340,2012-11-25 01:54:00
9:54 PM,34.0,17.1,50,29.86,-9999.0,NW,10.4,17.3,N/A,,Unknown,320,2012-11-25 02:54:00
10:54 PM,34.0,16.0,48,29.87,-9999.0,Variable,4.6,-,N/A,,Unknown,0,2012-11-25 03:54:00
11:54 PM,34.0,17.1,50,29.87,-9999.0,Variable,3.5,-,N/A,,Unknown,0,2012-11-25 04:54:00